Regional Weather Roundup
Issued by NWS Newport/Morehead, NC

Current Version | Previous Version | Text Only | Print | Product List | Glossary On
Versions: 1 2 3 4 5 6 7 8 9 10 11 12 13 14 15 16 17 18 19 20 21 22 23 24 25 26 27 28 29 30 31 32 33 34 35 36 37 38 39 40 41 42 43 44 45 46 47 48 49 50
000
ASUS42 KMHX 301022
RWRMHX
WEATHER ROUNDUP FOR EASTERN NORTH CAROLINA
NATIONAL WEATHER SERVICE NEWPORT/MOREHEAD CITY NC
600 AM EDT THU OCT 30 2014

NOTE: "FAIR" INDICATES FEW OR NO CLOUDS BELOW 12,000 FEET
WITH NO SIGNIFICANT WEATHER AND/OR OBSTRUCTIONS TO VISIBILITY

NCZ015>017-031-032-045>047-102-103-301100-
NORTH COAST

CITY           SKY/WX    TMP DP  RH WIND       PRES   REMARKS
EDENTON        PTCLDY    53  52  94 N6        29.99S
ELIZABETH CITY CLOUDY    57  54  88 NW10      30.00R
KITTY HAWK     CLOUDY    58  54  85 N6G20     29.96S
MANTEO         CLOUDY    58  54  86 NE14      29.97S

$$

NCZ045>047-081-094-103-104-301100-
CENTRAL COAST

CITY           SKY/WX    TMP DP  RH WIND       PRES   REMARKS
FRISCO         CLOUDY    60  57  89 NE12G24   29.95R
SWANQUARTER      N/A     55 N/A N/A NE8       29.91F

$$

NCZ095-097-098-100-101-301100-
SOUTHERN COAST

CITY           SKY/WX    TMP DP  RH WIND       PRES   REMARKS
BEAUFORT       LGT RAIN  58  57  97 N13       29.96R
CEDAR ISLAND     N/A     59 N/A N/A N14G23    30.00S
JACKSONVILLE   CLOUDY    60  57  89 N10       29.96R
PINEY ISLAND   LGT RAIN  60  55  83 N15G22    29.96R
WILMINGTON     CLOUDY    59  57  93 N7        29.95R


$$

NCZ011>013-027>030-043-044-078>080-089-090>093-098-301100-
COASTAL PLAIN

CITY           SKY/WX    TMP DP  RH WIND       PRES   REMARKS
AHOSKIE        NOT AVBL
CLINTON        CLOUDY    57  54  88 N7        29.99R
ELIZABETHTOWN  MOCLDY    56  50  80 CALM      29.98S
GOLDSBORO      MOCLDY    57  55  94 N2        29.98R
GREENVILLE     MOCLDY    54  52  94 N3        30.01R
HAVELOCK       CLOUDY    58  54  86 NE17G23   29.98R
KENANSVILLE    CLOUDY    58  56  92 N10       29.99R
KINSTON        MOCLDY    57  51  78 NE8       30.00R
NEW BERN       CLOUDY    58  53  84 NE10      29.98F
RICHLANDS      CLOUDY    59  54  82 NE10      29.98R
ROCKY MOUNT    MOCLDY    54  52  93 N5        30.02R
WASHINGTON     MOCLDY    55  51  89 N5        29.99R
WHITEVILLE     MOCLDY    57  52  84 N3        29.97S

$$

AMZ130-135-150-152-154-156-158-170-250-252-270-ANZ085-086-088-633-658-670-301100-
MARINE OBSERVATIONS

STATION/POSITION TIME  TEMP    WIND        PRES    WAVE   SWELL
                       AIR SEA DIR/SP/G            HT/PER HT/PER
                 (UTC) (F)     (DEG/KT/KT) (MB)    (FT/S) (FT/S)
CHESAPEAKE LIGHT 1000   60      30/ 16/ 18 1015.6
64 E VA BEACH    1000   58 67   30/ 17/ 21 1014.3    5/ 6
DUCK             1000   60 67   20/ 21/ 25 1014.0
2 E DUCK         NOT AVBL
10 NE DUCK       1000      67                N/A     5/ 6
OREGON INLET     1000   59 68   10/ 16/ 19 1014.2
13E OREGON INLT  1000      70                N/A     6/ 6
HATTERAS CG      1000   61 71   20/ 21/ 25 1014.1
DIAMOND BUOY     1000   65     350/ 21/ 25 1012.8    4/ 5
17 S OCRACOKE    NOT AVBL
CAPE LOOKOUT     1000   60     360/ 15/ 19 1014.1
BEAUFORT LAB     1000   59 70   10/ 11/ 13 1013.8
30 SE NEW RIVER  1000   67 74  360/ 14/ 17 1013.5    3/ 5
5 SE WRIGHTSVLE  1000   59 71   40/ 12/ 14   N/A
225 S CAPE HAT   0905   75 77  250/  8/ 10 1014.7    2/ 8   2/ 8
41 SE CHARLESTON 1000   77 77  240/ 16/ 19 1012.7    3/ 5   2/ 9

$$



USA.gov is the U.S. government's official web portal to all federal, state and local government web resources and services.